Regional Weather Roundup
Issued by NWS Jackson, KY

Home | Current Version | Previous Version | Text Only | Print | Product List | Glossary Off
Versions: 1 2 3 4 5 6 7 8 9 10 11 12 13 14 15 16 17 18 19 20 21 22 23 24 25 26 27 28 29 30 31 32 33 34 35 36 37 38 39 40 41 42 43 44 45 46 47 48 49 50

000
ASUS43 KJKL 040410
RWRJKL

EAST KENTUCKY HOURLY WEATHER ROUNDUP
NATIONAL WEATHER SERVICE JACKSON KY
1200 AM EDT FRI SEP 04 2015

NOTE: "FAIR" INDICATES FEW OR NO CLOUDS BELOW 12,000 FEET WITH
NO SIGNIFICANT WEATHER AND/OR OBSTRUCTIONS TO VISIBILITY.

* THESE REPORTS ARE NOT UNDER NWS QUALITY CONTROL AND MAY NOT
  REPORT WEATHER SUCH AS PRECIPITATION AND FOG.

KYZ079-080-083-085-087-088-110-112-115-119-120-040500
...EASTERN KENTUCKY...

CITY           SKY/WX    TMP DP  RH WIND       PRES   REMARKS
JACKSON        CLEAR     75  65  70 CALM      30.02F
LONDON         CLEAR     71  66  84 CALM      30.02S
SOMERSET*      CLEAR     70  70 100 CALM      30.02S
MONTICELLO*    CLEAR     67  67 100 CALM      30.03S FOG
WILLIAMSBURG*  CLEAR     64  64 100 CALM      30.02S
MIDDLESBORO*   CLEAR     68  67  94 CALM      30.03S
HARLAN APT*      N/A     68  66  94 MISG      30.04F
HAZARD APT*    CLEAR     70  70 100 CALM      30.02F
BLACK MTN*       N/A     66  64  94 N1          N/A
PIKEVILLE APT* CLEAR     73  66  78 CALM      30.03S
BIG SANDY*     CLEAR     71  69  93 SE5       30.02S
MOREHEAD APT*  CLEAR     72  70  94 CALM      30.02S FOG
$$

KYZ035-036-041-042-044-050-067-078-099-040500
...CENTRAL KENTUCKY...

CITY           SKY/WX    TMP DP  RH WIND       PRES   REMARKS
MT STERLING*   CLEAR     68  68 100 CALM      30.02S FOG
FLEMING/MASON* CLEAR     73  68  83 S5        30.00S
DANVILLE*      CLEAR     68  64  88 CALM      30.02S
RICHMOND*      CLEAR     72  66  83 CALM      30.00S
LEXINGTON      CLEAR     74  67  78 CALM      30.00S
FRANKFORT      CLEAR     71  66  84 CALM      29.98S
$$

KYZ091>093-OHZ055-061-077-WVZ005-015-034-035-042-040500
...SOUTHERN OHIO/WEST VIRGINIA...

CITY           SKY/WX    TMP DP  RH WIND       PRES   REMARKS
COVINGTON      CLEAR     73  66  78 CALM      29.98S
COLUMBUS       MOCLDY    68  67  96 NE6       29.98R
DAYTON         PTCLDY    77  67  71 SW7       29.99S
WILMINGTON     CLEAR     70  67  90 SW3       29.98S
HUNTINGTON     CLEAR     69  67  93 CALM      29.99S
CHARLESTON     CLEAR     72  69  90 CALM      29.99S
PINEVILLE*     CLEAR     67  67 100 MISG      30.10S FOG
BECKLEY        PTCLDY    68  64  87 CALM      30.08F
BLUEFIELD      CLOUDY    72  63  73 W3        30.10F
$$

VAZ002-007-008-TNZ017-027-036-066-071-040500
...SOUTHWEST VIRGINIA/EAST TENNESSEE...

CITY           SKY/WX    TMP DP  RH WIND       PRES   REMARKS
WISE*          CLEAR     70  63  78 CALM      30.11F
JONESVILLE*    CLEAR     66  66 100 CALM      30.05F
ABINGDON*      CLEAR     70  65  84 CALM      30.06S
BRISTOL        PTCLDY    68  65  90 CALM      30.03S
KNOXVILLE      CLEAR     75  69  81 CALM      29.98S
OAK RIDGE      CLEAR     74  67  78 CALM      30.00F
CROSSVILLE     CLEAR     69  65  86 CALM      30.06S FOG
NASHVILLE      PTCLDY    78  66  66 CALM      29.98F
$$

...KEY TO REMARKS...
VSB - VISIBILITY IN MILES
WCI - WIND CHILL INDEX
HX  - HEAT INDEX

$$



USA.gov is the U.S. government's official web portal to all federal, state and local government web resources and services.